PCSAT (NO-44)

Last updated on Mon Sep 15 2025 00:03:09 GMT+0000 (Coordinated Universal Time)

1 26931U 01043C 25257.25554207 .00000127 00000+0 78741-4 0 9990 2 26931 67.0490 237.8727 0007058 275.2903 84.7393 14.31777482250941
UTC large
Height (km)
Speed (km/s)
/
Latitude / Longitude
Inclination (degrees)
Orbital Period (minutes)
Azimuth
Elevation
Range (km)
Doppler Factor

Next 0 passes for location: London (51.5072 / 0.1276)

Sorry there are no passes over London.